Location: *
(51.8167°N, 12.5000°E)
Time: 15:06:52
(UTC+00:00)

Aureole 1 Rocket - Pass Details

Date: 16 September 2019
Orbit: 379 x 1383 km, 73.9° (Epoch: 19 October)

Event Time Altitude Azimuth Distance (km) Brightness Sun altitude
Rises 18:34:46 0° 333° (NNW) 3,718 7.8 -11.6°
Reaches altitude 10° 18:37:41 10° 329° (NNW) 2,595 7.0 -12.0°
Maximum altitude 18:43:23 56° 253° (WSW) 872 4.1 -12.9°
Drops below altitude 10° 18:47:40 10° 176° (S) 1,954 5.4 -13.5°
Enters shadow 18:49:03 - 172° (S) 2,500 5.9 -13.7°
